Flag for Greece Weather past 2 weeks in Heraklion, Crete, Greece

Now
77 °F

Scattered clouds.


Feels Like: 79 °F
Forecast: 73 / 79 °F
Wind: 12 mph from North

Location: Heraklion Airport

Current Time: Sep 18, 2014 at 11:36:25 AM

Latest Report: Sep 18, 2014 at 10:50 AM


Visibility: N/A

Pressure: 29.98 "Hg

Humidity: 69%

Dew point: 66 °F

Location of HeraklionLocation

Historic Weather in Heraklion — Graph

°F

Heraklion temperature yesterday

Maximum temperature yesterday: 82 °F (at 1:50 PM)
Minimum temperature yesterday: 68 °F (at 7:20 AM)
Average temperature yesterday: 76 °F

Past Weeks' High & Low Weather Summary

 TemperatureHumidityPressure
High84 °F (Sep 3, 10:50 AM)94% (Sep 13, 5:50 AM)29.98 "Hg (Sep 13, 5:50 AM)
Low68 °F (Sep 5, 5:50 AM)54% (Sep 7, 9:50 AM)29.71 "Hg (Sep 3, 10:20 AM)
Average77 °F75%29.86 "Hg
* Reported Sep 3 10:20 AM — Sep 18 10:20 AM, Heraklion, Weather by CustomWeather, © 2014

Note: Actual official high and low records may vary slightly from our data, if they occured in-between our weather recording intervals... More about our weather records

Advertising

Heraklion weather history for previous 24 hours

 ConditionsComfort  
Time TempWeatherWind HumidityBarometerVisibility
10:20 AM
Sep 18
77 °FScattered clouds.12 mph61%29.98 "HgN/A
9:50 AM75 °FScattered clouds.10 mph65%29.95 "HgN/A
9:20 AM77 °FScattered clouds.9 mph65%29.95 "HgN/A
8:50 AM75 °FScattered clouds.10 mph65%29.95 "HgN/A
8:20 AM75 °FScattered clouds.12 mph65%29.92 "HgN/A
7:20 AM73 °FPassing clouds.10 mph69%29.92 "HgN/A
6:50 AM73 °FPassing clouds.12 mph69%29.92 "HgN/A
6:20 AM73 °FPassing clouds.12 mph78%29.92 "HgN/A
5:50 AM73 °FPassing clouds.12 mph78%29.92 "HgN/A
4:50 AM73 °FPassing clouds.12 mph83%29.89 "HgN/A
3:50 AM73 °FPassing clouds.12 mph78%29.89 "HgN/A
3:20 AM73 °FPassing clouds.12 mph78%29.89 "HgN/A
2:50 AM73 °FPassing clouds.10 mph78%29.89 "HgN/A
1:50 AM75 °FPassing clouds.9 mph74%29.92 "HgN/A
1:20 AM75 °FPassing clouds.12 mph69%29.92 "HgN/A
12:50 AM75 °FPassing clouds.9 mph69%29.92 "HgN/A
12:20 AM73 °FPassing clouds.9 mph78%29.92 "HgN/A
11:50 PM
Sep 17
73 °FPassing clouds.10 mph78%29.92 "HgN/A
11:20 PM73 °FPassing clouds.13 mph83%29.92 "HgN/A
10:50 PM73 °FPassing clouds.8 mph83%29.92 "HgN/A
10:20 PM72 °FLight rain. Passing clouds.13 mph83%29.92 "Hg5 mi
9:50 PM77 °FPassing clouds.12 mph69%29.92 "HgN/A
9:20 PM77 °FPassing clouds.12 mph69%29.89 "HgN/A
8:50 PM77 °FPassing clouds.9 mph69%29.89 "HgN/A
8:20 PM77 °FScattered clouds.9 mph65%29.86 "HgN/A
7:50 PM77 °FScattered clouds.8 mph65%29.86 "HgN/A
7:20 PM79 °FPassing clouds.10 mph70%29.86 "HgN/A
6:50 PM79 °FPassing clouds.12 mph70%29.86 "HgN/A
6:20 PM81 °FPassing clouds.10 mph66%29.86 "HgN/A
5:50 PM81 °FPassing clouds.10 mph66%29.86 "HgN/A
4:50 PM81 °FPassing clouds.12 mph66%29.86 "HgN/A
4:20 PM82 °FPassing clouds.12 mph62%29.86 "HgN/A
3:50 PM82 °FPassing clouds.12 mph62%29.86 "HgN/A
3:20 PM82 °FPassing clouds.9 mph62%29.86 "HgN/A
2:50 PM82 °FPassing clouds.10 mph62%29.86 "HgN/A
2:20 PM82 °FPassing clouds.12 mph62%29.86 "HgN/A
1:50 PM82 °FPassing clouds.12 mph62%29.86 "HgN/A
1:20 PM81 °FPassing clouds.10 mph70%29.86 "HgN/A
12:50 PM81 °FPassing clouds.8 mph70%29.86 "HgN/A
12:20 PM79 °FPassing clouds.8 mph70%29.86 "HgN/A
11:50 AM79 °FPassing clouds.7 mph70%29.86 "HgN/A
11:20 AM79 °FScattered clouds.9 mph70%29.86 "HgN/A
Weather by CustomWeather, © 2014

See weather overviewHow to use our weather pages